• în România
  • Lista ţărilor
  • Pe 7 zile
  • Temperatura apei
  • Hartă satelitară
  • Meteo pe hartă
  • Widget-uri
  • user-avatar
    Intrare

    Meteo pe oră la Roma

    Astăzi, 20 Septembrie, Joi

    Timp Temperatura Precipitaţii Vânt Presiune Umiditate
    00:00 +24°C° 0.3 mm 2 m/s 760 mmHg 80%
    01:00 +24°C° 0.3 mm 2 m/s 760 mmHg 80%
    02:00 +24°C° 0.1 mm 2 m/s 760 mmHg 80%
    03:00 +24°C° 0.1 mm 2 m/s 760 mmHg 80%
    04:00 +23°C° 0.1 mm 2 m/s 759 mmHg 80%
    05:00 +24°C° 0 mm 3 m/s 760 mmHg 79%
    06:00 +24°C° 0 mm 3 m/s 760 mmHg 78%
    07:00 +24°C° 0 mm 3 m/s 760 mmHg 77%
    08:00 +26°C° 0.1 mm 3 m/s 760 mmHg 70%
    09:00 +28°C° 0.1 mm 3 m/s 760 mmHg 63%
    10:00 +29°C° 0.1 mm 3 m/s 760 mmHg 57%
    11:00 +30°C° 0.3 mm 3 m/s 760 mmHg 56%
    12:00 +30°C° 0.3 mm 3 m/s 760 mmHg 55%
    13:00 +30°C° 0.3 mm 3 m/s 760 mmHg 55%
    14:00 +30°C° 0.4 mm 3 m/s 759 mmHg 57%
    15:00 +29°C° 0.4 mm 3 m/s 759 mmHg 59%
    16:00 +29°C° 0.4 mm 3 m/s 759 mmHg 61%
    17:00 +28°C° 0.4 mm 2 m/s 759 mmHg 65%
    18:00 +27°C° 0.4 mm 2 m/s 759 mmHg 69%
    19:00 +26°C° 0.4 mm 2 m/s 759 mmHg 72%
    20:00 +25°C° 0.2 mm 2 m/s 759 mmHg 74%
    21:00 +25°C° 0.2 mm 2 m/s 759 mmHg 75%
    22:00 +25°C° 0.2 mm 2 m/s 759 mmHg 76%
    23:00 +24°C° 0.1 mm 2 m/s 759 mmHg 76%

    Mâine, 21 Septembrie, Vineri

    Timp Temperatura Precipitaţii Vânt Presiune Umiditate
    00:00 +24°C° 0.1 mm 2 m/s 759 mmHg 77%
    01:00 +24°C° 0.1 mm 2 m/s 759 mmHg 77%
    02:00 +24°C° 0 mm 2 m/s 759 mmHg 77%
    03:00 +23°C° 0 mm 2 m/s 759 mmHg 76%
    04:00 +23°C° 0 mm 2 m/s 759 mmHg 76%
    05:00 +23°C° 0 mm 2 m/s 759 mmHg 75%
    06:00 +24°C° 0 mm 2 m/s 759 mmHg 73%
    07:00 +24°C° 0 mm 2 m/s 759 mmHg 72%
    08:00 +26°C° 0 mm 2 m/s 759 mmHg 64%
    09:00 +29°C° 0 mm 2 m/s 759 mmHg 56%
    10:00 +31°C° 0 mm 2 m/s 760 mmHg 48%
    11:00 +31°C° 0.1 mm 2 m/s 759 mmHg 46%
    12:00 +32°C° 0.1 mm 2 m/s 759 mmHg 44%
    13:00 +32°C° 0.1 mm 2 m/s 759 mmHg 42%
    14:00 +33°C° 0.1 mm 3 m/s 759 mmHg 45%
    15:00 +31°C° 0.1 mm 3 m/s 759 mmHg 48%
    16:00 +31°C° 0.1 mm 3 m/s 759 mmHg 52%
    17:00 +29°C° 0.1 mm 2 m/s 759 mmHg 58%
    18:00 +28°C° 0.1 mm 1 m/s 759 mmHg 64%
    19:00 +26°C° 0.1 mm 1 m/s 759 mmHg 70%
    20:00 +26°C° 0 mm 1 m/s 760 mmHg 71%
    21:00 +25°C° 0 mm 1 m/s 760 mmHg 73%
    22:00 +25°C° 0 mm 1 m/s 761 mmHg 74%
    23:00 +25°C° 0 mm 1 m/s 761 mmHg 74%

    Poimâine, 22 Septembrie, Sâmbătă

    Timp Temperatura Precipitaţii Vânt Presiune Umiditate
    00:00 +24°C° 0 mm 1 m/s 761 mmHg 75%
    01:00 +24°C° 0 mm 1 m/s 761 mmHg 75%
    02:00 +24°C° 0 mm 1 m/s 761 mmHg 75%
    03:00 +24°C° 0 mm 1 m/s 761 mmHg 75%
    04:00 +23°C° 0 mm 1 m/s 761 mmHg 75%
    05:00 +24°C° 0 mm 1 m/s 761 mmHg 74%
    06:00 +24°C° 0 mm 1 m/s 761 mmHg 72%
    07:00 +24°C° 0 mm 1 m/s 761 mmHg 70%
    08:00 +27°C° 0 mm 1 m/s 761 mmHg 62%
    09:00 +29°C° 0 mm 1 m/s 762 mmHg 54%
    10:00 +29°C° 0 mm 0 m/s 762 mmHg 47%
    11:00 +32°C° 0 mm 1 m/s 762 mmHg 44%
    12:00 +32°C° 0 mm 2 m/s 761 mmHg 42%
    13:00 +34°C° 0 mm 2 m/s 761 mmHg 40%
    14:00 +33°C° 0 mm 3 m/s 761 mmHg 42%
    15:00 +33°C° 0 mm 3 m/s 761 mmHg 43%
    16:00 +33°C° 0 mm 3 m/s 761 mmHg 45%
    17:00 +30°C° 0 mm 3 m/s 761 mmHg 52%
    18:00 +28°C° 0 mm 2 m/s 761 mmHg 58%
    19:00 +26°C° 0 mm 1 m/s 761 mmHg 65%
    20:00 +26°C° 0 mm 1 m/s 762 mmHg 67%
    21:00 +25°C° 0 mm 1 m/s 762 mmHg 69%
    22:00 +25°C° 0 mm 1 m/s 762 mmHg 71%
    23:00 +24°C° 0 mm 1 m/s 762 mmHg 72%

    23 Septembrie, Duminică

    Timp Temperatura Precipitaţii Vânt Presiune Umiditate
    00:00 +24°C° 0 mm 1 m/s 762 mmHg 73%
    01:00 +24°C° 0 mm 1 m/s 762 mmHg 73%
    02:00 +24°C° 0 mm 1 m/s 762 mmHg 73%
    03:00 +23°C° 0 mm 1 m/s 762 mmHg 73%
    04:00 +23°C° 0 mm 1 m/s 762 mmHg 73%
    05:00 +24°C° 0 mm 1 m/s 762 mmHg 71%
    06:00 +24°C° 0 mm 1 m/s 762 mmHg 69%
    07:00 +24°C° 0 mm 1 m/s 762 mmHg 67%
    08:00 +26°C° 0 mm 1 m/s 762 mmHg 61%
    09:00 +28°C° 0 mm 2 m/s 762 mmHg 55%
    10:00 +30°C° 0 mm 2 m/s 762 mmHg 49%
    11:00 +31°C° 0 mm 3 m/s 762 mmHg 49%
    12:00 +31°C° 0 mm 3 m/s 762 mmHg 49%
    13:00 +33°C° 0 mm 4 m/s 761 mmHg 48%
    14:00 +32°C° 0 mm 4 m/s 761 mmHg 51%
    15:00 +32°C° 0 mm 4 m/s 761 mmHg 54%
    16:00 +30°C° 0 mm 3 m/s 761 mmHg 58%
    17:00 +29°C° 0 mm 3 m/s 761 mmHg 65%
    18:00 +27°C° 0 mm 3 m/s 761 mmHg 72%
    19:00 +26°C° 0 mm 2 m/s 761 mmHg 79%
    20:00 +25°C° 0 mm 2 m/s 761 mmHg 82%
    21:00 +25°C° 0 mm 2 m/s 760 mmHg 85%
    22:00 +24°C° 0 mm 2 m/s 760 mmHg 88%
    23:00 +24°C° 0 mm 2 m/s 760 mmHg 89%

    24 Septembrie, Luni

    Timp Temperatura Precipitaţii Vânt Presiune Umiditate
    00:00 +24°C° 0 mm 3 m/s 760 mmHg 91%
    01:00 +24°C° 0 mm 3 m/s 759 mmHg 92%
    02:00 +24°C° 0.1 mm 3 m/s 759 mmHg 91%
    03:00 +24°C° 0.1 mm 3 m/s 758 mmHg 91%
    04:00 +23°C° 0.1 mm 4 m/s 758 mmHg 91%
    05:00 +25°C° 0.1 mm 4 m/s 758 mmHg 89%
    06:00 +25°C° 0.1 mm 4 m/s 757 mmHg 87%
    07:00 +25°C° 0.1 mm 4 m/s 757 mmHg 85%
    08:00 +26°C° 0 mm 4 m/s 757 mmHg 80%
    09:00 +27°C° 0 mm 4 m/s 757 mmHg 76%
    10:00 +28°C° 0 mm 4 m/s 757 mmHg 72%
    11:00 +28°C° 0 mm 4 m/s 757 mmHg 69%
    12:00 +29°C° 0 mm 4 m/s 757 mmHg 67%
    13:00 +29°C° 0 mm 4 m/s 757 mmHg 64%
    14:00 +29°C° 0 mm 4 m/s 757 mmHg 61%
    15:00 +29°C° 0 mm 4 m/s 756 mmHg 58%
    16:00 +29°C° 0 mm 4 m/s 756 mmHg 55%
    17:00 +28°C° 0 mm 3 m/s 757 mmHg 59%
    18:00 +26°C° 0 mm 3 m/s 757 mmHg 63%
    19:00 +25°C° 0 mm 2 m/s 757 mmHg 67%
    20:00 +25°C° 0 mm 3 m/s 758 mmHg 69%
    21:00 +24°C° 0 mm 3 m/s 758 mmHg 70%
    22:00 +24°C° 0 mm 3 m/s 759 mmHg 71%
    23:00 +24°C° 0 mm 3 m/s 759 mmHg 72%

    25 Septembrie, Marţi

    Timp Temperatura Precipitaţii Vânt Presiune Umiditate
    00:00 +22°C° 0 mm 3 m/s 759 mmHg 72%
    01:00 +22°C° 0 mm 4 m/s 760 mmHg 72%
    02:00 +22°C° 0 mm 4 m/s 760 mmHg 69%
    03:00 +21°C° 0 mm 4 m/s 761 mmHg 66%
    04:00 +21°C° 0 mm 5 m/s 761 mmHg 63%
    05:00 +21°C° 0 mm 5 m/s 762 mmHg 60%
    06:00 +20°C° 0 mm 4 m/s 762 mmHg 56%
    07:00 +20°C° 0 mm 4 m/s 763 mmHg 53%
    08:00 +21°C° 0 mm 4 m/s 764 mmHg 46%
    09:00 +23°C° 0 mm 4 m/s 764 mmHg 40%
    10:00 +25°C° 0 mm 4 m/s 765 mmHg 34%
    11:00 +26°C° 0 mm 4 m/s 765 mmHg 32%
    12:00 +27°C° 0 mm 3 m/s 765 mmHg 30%
    13:00 +28°C° 0 mm 3 m/s 765 mmHg 28%
    14:00 +27°C° 0 mm 3 m/s 765 mmHg 28%
    15:00 +27°C° 0 mm 4 m/s 765 mmHg 29%
    16:00 +27°C° 0 mm 4 m/s 765 mmHg 30%
    17:00 +25°C° 0 mm 4 m/s 765 mmHg 34%
    18:00 +22°C° 0 mm 4 m/s 766 mmHg 38%
    19:00 +20°C° 0 mm 4 m/s 766 mmHg 42%
    20:00 +19°C° 0 mm 4 m/s 767 mmHg 42%
    21:00 +18°C° 0 mm 4 m/s 767 mmHg 43%
    22:00 +17°C° 0 mm 4 m/s 768 mmHg 43%
    23:00 +17°C° 0 mm 4 m/s 768 mmHg 43%
    Arată mai mult